This is the latest recevied weather packets stored in our database for station/object K4CRS-13. If no packets are shown the sender has not sent any weather packets the latest 10 day(s).
| Time | Temp. | Humidity | Pressure | Rain* | Wind** | Luminosity | Snow |
|---|---|---|---|---|---|---|---|
| 1788024146 | 33.89° C | 41% | 1054.7 hPa | 0 mm | - | 814 W/m² | - |
| 1788023842 | 33.89° C | 41% | 1055 hPa | 0 mm | - | 819 W/m² | - |
| 1788023537 | 33.89° C | 44% | 1054.9 hPa | 0 mm | - | 801 W/m² | - |
| 1788023232 | 33.89° C | 42% | 1054.8 hPa | 0 mm | - | 788 W/m² | - |
| 1788022926 | 33.33° C | 45% | 1054.7 hPa | 0 mm | - | 811 W/m² | - |
| 1788022623 | 32.78° C | 44% | 1054.7 hPa | 0 mm | - | 808 W/m² | - |
| 1788022318 | 32.78° C | 43% | 1054.8 hPa | 0 mm | - | 747 W/m² | - |
| 1788022017 | 32.78° C | 43% | 1054.8 hPa | 0 mm | - | 763 W/m² | - |
| 1788021712 | 32.78° C | 44% | 1055 hPa | 0 mm | - | 753 W/m² | - |
| 1788021410 | 32.78° C | 44% | 1054.9 hPa | 0 mm | - | 743 W/m² | - |
| 1788021105 | 33.33° C | 44% | 1055.1 hPa | 0 mm | - | 732 W/m² | - |
| 1788020800 | 33.33° C | 44% | 1054.9 hPa | 0 mm | - | 722 W/m² | - |
| 1788020495 | 33.33° C | 44% | 1055 hPa | 0 mm | - | 715 W/m² | - |
| 1788020191 | 32.78° C | 45% | 1054.9 hPa | 0 mm | - | 708 W/m² | - |
| 1788019886 | 32.22° C | 44% | 1055.1 hPa | 0 mm | - | 699 W/m² | - |
| 1788019581 | 31.67° C | 45% | 1055.3 hPa | 0 mm | - | 692 W/m² | - |
| 1788019281 | 31.67° C | 46% | 1055 hPa | 0 mm | - | 684 W/m² | - |
| 1788018978 | 32.22° C | 46% | 1055.1 hPa | 0 mm | - | 677 W/m² | - |
| 1788018674 | 32.22° C | 45% | 1055.2 hPa | 0 mm | - | 667 W/m² | - |
| 1788018373 | 32.22° C | 49% | 1055.3 hPa | 0 mm | - | 656 W/m² | - |
| 1788018068 | 31.67° C | 47% | 1055.2 hPa | 0 mm | - | 645 W/m² | - |
| 1788017764 | 31.67° C | 52% | 1055.2 hPa | 0 mm | - | 632 W/m² | - |
| 1788017461 | 31.11° C | 57% | 1055 hPa | 0 mm | - | 622 W/m² | - |
| 1788017157 | 31.11° C | 55% | 1055 hPa | 0 mm | - | 612 W/m² | - |
| 1788016857 | 30.56° C | 55% | 1055.1 hPa | 0 mm | - | 601 W/m² | - |
* Rain latest hour (hover to see other rain measurements)
** Current wind speed in m/s (hover to see current wind gust speed)